Regional Weather Roundup
Issued by NWS

Home | Current Version | Previous Version | Text Only | Print | Product List | Glossary Off
Versions: 1 2 3 4 5 6 7 8 9 10 11 12 13 14 15 16 17 18 19 20 21 22 23 24 25 26 27 28 29 30 31 32 33 34 35 36 37 38 39 40 41 42 43 44 45 46 47 48 49 50

000
ASUS43 KLSX 271707
RWRMO

WEATHER SUMMARY FOR MISSOURI
NATIONAL WEATHER SERVICE SPRINGFIELD MO
1200 PM CDT WED AUG 27 2014

NOTE: "FAIR" INDICATES FEW OR NO CLOUDS BELOW 12,000 FEET WITH NO
       SIGNIFICANT WEATHER AND/OR OBSTRUCTIONS TO VISIBILITY.
       CURRENT SKY AND/OR WEATHER CONDITIONS ARE NOT AVAILABLE FOR
       CHILLICOTHE AND FARMINGTON.

MOZ001>031-035>038-043-044-053-054-271800-
...NORTHERN AND WESTERN MISSOURI...

CITY           SKY/WX    TMP DP  RH WIND       PRES   REMARKS
KANSAS CTY INT CLOUDY    75  68  78 NE9       30.15F
KANSAS C DTWN  PTSUNNY   83  71  67 NE13      30.13S
LEE`S SUMMIT   MOSUNNY   81  72  74 E7        30.15R
ST JOSEPH      LGT RAIN  71  69  93 NE3       30.16F
CHILLICOTHE      N/A     73  69  87 VRB3      30.18R
KIRKSVILLE     CLOUDY    75  69  81 NE5       30.17S

$$
MOZ066>068-077>081-088>096-101>105-271800-
...SOUTHWEST MISSOURI...

CITY           SKY/WX    TMP DP  RH WIND       PRES   REMARKS
SPRINGFIELD    SUNNY     91  70  49 VRB5      30.13F HX  96
JOPLIN         MOSUNNY   91  69  48 SW10      30.12F HX  96

$$
MOZ032>034-039>042-045>050-055>058-069>072-271800-
...CENTRAL MISSOURI...

CITY           SKY/WX    TMP DP  RH WIND       PRES   REMARKS
COLUMBIA       PTSUNNY   87  74  64 N9        30.13R HX  95
JEFFERSON CITY MOSUNNY   88  72  58 VRB7      30.10S HX  94
ROLLA          MOSUNNY   91  70  49 VRB6      30.11F HX  96
SEDALIA        PTSUNNY   83  72  69 NE10      30.15S
WHITEMAN AFB   PTSUNNY   82  49  31 E8        30.13S
OSAGE BEACH    MOSUNNY   90  72  55 NW10      30.12R HX  96

$$
MOZ051-052-059>065-271800-
...EAST CENTRAL MISSOURI...

CITY           SKY/WX    TMP DP  RH WIND       PRES   REMARKS
ST LOUIS INTL  PTSUNNY   91  72  53 CALM      30.10F HX  98
SPIRIT OF STL  MOSUNNY   90  72  55 CALM      30.08F HX  97
ST CHARLES     SUNNY     87  74  64 CALM      30.09F HX  95

$$
MOZ072>076-082>087-097>100-106>115-271800-
...SOUTH CENTRAL AND SOUTHEAST MISSOURI...

CITY           SKY/WX    TMP DP  RH WIND       PRES   REMARKS
CAPE GIRARDEAU SUNNY     89  71  55 W3        30.09F HX  95
FARMINGTON     SUNNY     90  68  48 S3        30.13F HX  93
POPLAR BLUFF   SUNNY     90  70  51 NE5       30.08F HX  95
WEST PLAINS    MOSUNNY   90  69  50 VRB3      30.14F HX  94

$$


USA.gov is the U.S. government's official web portal to all federal, state and local government web resources and services.